FALCON 9 DEB (52884 NORAD) Tracking and Keplerian Element Data

This shows tracking and keplerian element data for the satellite.

Feedback or suggestion? Click here.




ElementValue
Catalog52884
NameFALCON 9 DEB
Epoch Orbit331
Epoch Day189.15508
Epoch Year2022
RAAN298.6141
Inclination53.1966
Eccentricity0.0005042
Argument of Perigee87.6062
Mean Anonmoly272.5566
Mean Motion16.45634105
Decay Rate0.10731535
L11 52884U 22062BG 22189.15508000 .10731535 12508-4 27620-3 0 9995
L22 52884 53.1966 298.6141 0005042 87.6062 272.5566 16.45634105 3315

Live tracking and technical data element details for FALCON 9 DEB (NORAD 52884). FALCON 9 DEB can be tracked NOW for your location showing map with azimuth and elevation plus other details from your city location.

Track the satellite on the map from your city or location and see movement details for azimuth, elevation, latitude, longitude, range, height, and movement on the map or in text.







IsCatalogInMostPopularTable: catalog: 52884, numindb: 5
Update: records affected: 1



GetName: 52884 FALCON 9 DEB

Hit Count: updated at: Thu, 06 Oct 2022 04:00:30 GMT